Tracking 19242 objects as of 15-Aug-2018
HD Live streaming from Space Station
objects crossing your sky now

NOAA 16 DEB

Track NOAA 16 DEB now!
10-day predictions


NORAD ID: 41232
Int'l Code: 2000-055EM
Perigee: 855.2 km
Apogee: 929.4 km
Inclination: 99.0 °
Period: 102.7 minutes
Semi major axis: 7263 km
RCS: Unknown
Launch date: September 21, 2000
Source: United States (US)
Launch site: AIR FORCE WESTERN TEST RANGE (AFWTR)

Note: This is SATELLITE DEBRIS
aabbcc
Your satellite tracking list
Your tracking list is empty




NASA's NSSDC Master Catalog

Two Line Element Set (TLE):
1 41232U 00055EM  18225.00020697 +.00000085 +00000-0 +82764-4 0  9998
2 41232 098.9539 289.3126 0051061 033.4836 326.9541 14.02500159136454
Source of the keplerian elements: AFSPC